Weather History for KRBO - May, 2014

Change the Weather History Date:

Wednesday, May 14, 2014

  Actual Average (KCRP) Record (KCRP)
Temperature  
Mean Temperature 68 °F 78 °F  
Max Temperature 77 °F 86 °F 92 °F (1967)
Min Temperature 60 °F 70 °F 56 °F (1976)
Degree Days  
Heating Degree Days 0 0  
Month to date heating degree days 0  
Since 1 July heating degree days 898  
Cooling Degree Days 4 13  
Month to date cooling degree days 166  
Year to date cooling degree days 594  
Growing Degree Days 18 (Base 50)    
Moisture  
Dew Point 50 °F    
Average Humidity 57    
Maximum Humidity 81    
Minimum Humidity 26    
Precipitation  
Precipitation 0.00 in 0.09 in 2.31 in (1922)
Month to date precipitation 1.26  
Year to date precipitation 8.46  
Snow  
Snow 0.00 in - - ()
Month to date snowfall  
Since 1 July snowfall  
Snow Depth -    
Sea Level Pressure  
Sea Level Pressure 30.21 in    
Wind  
Wind Speed 16 mph (North)    
Max Wind Speed 22 mph    
Max Gust Speed 31 mph    
Visibility 10 miles    
Events Rain    
T = Trace of Precipitation, MM = Missing Value Source: NWS Daily Summary

Daily Weather History Graph

Daily Weather History Graph

Search for Another Location

Airport or City:

Trip Planner

Search our weather history database for the weather conditions in past years. The results will help you decide how hot, cold, wet, or windy it might be!

Date:

Astronomy

May. 14, 2014 Rise Set
Actual Time 6:42 AM CDT 8:12 PM CDT
Civil Twilight 6:16 AM CDT 8:37 PM CDT
Nautical Twilight 5:46 AM CDT 9:08 PM CDT
Astronomical Twilight 5:14 AM CDT 9:40 PM CDT
Moon 8:21 PM CDT (5/14) 6:37 AM CDT (5/14)
Length of Visible Light 14h 21m
Length of Day
13h 30m
Full, 100% of the Moon is Illuminated
May 14
Full
May 14
Full
May 21
Last Quarter
May 28
New
Jun 5
First Quarter

Hourly Weather History & Observations

Time (CDT) Temp. Dew Point Humidity Pressure Visibility Wind Dir Wind Speed Gust Speed Precip Events Conditions
12:15 AM 66.4 °F 55.4 °F 68% 30.16 in 10.0 mi North 17.3 mph 23.0 mph N/A   Overcast
12:35 AM 66.2 °F 55.0 °F 67% 30.16 in 10.0 mi North 18.4 mph 23.0 mph N/A   Overcast
1:15 AM 63.5 °F 56.3 °F 77% 30.16 in 10.0 mi North 17.3 mph - N/A Rain Light Rain
1:35 AM 63.5 °F 56.1 °F 77% 30.17 in 10.0 mi NNW 15.0 mph - N/A   Mostly Cloudy
1:55 AM 63.9 °F 55.2 °F 73% 30.17 in 10.0 mi North 16.1 mph 24.2 mph N/A   Overcast
2:15 AM 63.7 °F 54.3 °F 72% 30.17 in 10.0 mi North 15.0 mph - N/A   Overcast
2:35 AM 63.5 °F 54.0 °F 71% 30.17 in 10.0 mi North 16.1 mph - N/A   Overcast
2:55 AM 63.0 °F 53.6 °F 71% 30.17 in 10.0 mi NNW 13.8 mph - N/A   Overcast
3:15 AM 61.5 °F 53.8 °F 76% 30.17 in 10.0 mi North 17.3 mph 25.3 mph N/A   Overcast
3:35 AM 60.8 °F 55.0 °F 81% 30.17 in 10.0 mi North 12.7 mph - N/A   Overcast
3:55 AM 60.8 °F 54.9 °F 81% 30.18 in 10.0 mi North 20.7 mph 27.6 mph N/A   Overcast
4:15 AM 60.3 °F 54.0 °F 80% 30.18 in 10.0 mi NNW 18.4 mph 25.3 mph N/A   Overcast
4:35 AM 60.3 °F 54.0 °F 80% 30.18 in 10.0 mi NNW 18.4 mph 23.0 mph N/A   Overcast
4:55 AM 60.3 °F 53.8 °F 79% 30.19 in 10.0 mi NNW 17.3 mph 21.9 mph N/A   Overcast
5:15 AM 60.4 °F 53.8 °F 79% 30.19 in 10.0 mi NNW 15.0 mph - N/A   Overcast
5:35 AM 60.3 °F 53.2 °F 78% 30.20 in 10.0 mi NNW 20.7 mph 25.3 mph N/A   Overcast
5:55 AM 60.4 °F 53.6 °F 78% 30.20 in 10.0 mi NNW 16.1 mph 23.0 mph N/A   Overcast
6:15 AM 60.4 °F 53.2 °F 77% 30.22 in 10.0 mi NNW 16.1 mph 21.9 mph N/A   Overcast
6:35 AM 60.4 °F 53.1 °F 77% 30.22 in 10.0 mi NNW 17.3 mph - N/A   Overcast
6:55 AM 60.3 °F 53.2 °F 78% 30.23 in 10.0 mi NNW 15.0 mph 20.7 mph N/A   Overcast
7:15 AM 60.3 °F 53.1 °F 77% 30.23 in 10.0 mi NNW 15.0 mph - N/A   Overcast
7:35 AM 60.4 °F 53.6 °F 78% 30.24 in 10.0 mi NNW 13.8 mph - N/A   Overcast
7:55 AM 60.8 °F 54.0 °F 78% 30.25 in 10.0 mi North 12.7 mph - N/A   Overcast
8:15 AM 61.2 °F 54.1 °F 78% 30.25 in 10.0 mi NNW 13.8 mph - N/A   Overcast
8:35 AM 61.9 °F 53.8 °F 75% 30.26 in 10.0 mi NNW 15.0 mph - N/A   Overcast
8:55 AM 62.4 °F 53.4 °F 72% 30.27 in 10.0 mi NNW 19.6 mph 24.2 mph N/A   Overcast
9:15 AM 62.8 °F 52.9 °F 70% 30.27 in 10.0 mi NNW 18.4 mph 23.0 mph N/A   Overcast
9:35 AM 63.5 °F 53.8 °F 71% 30.27 in 10.0 mi NNW 17.3 mph - N/A   Mostly Cloudy
9:55 AM 64.8 °F 54.3 °F 69% 30.27 in 10.0 mi NNW 17.3 mph 23.0 mph N/A   Clear
10:35 AM 66.2 °F 53.2 °F 63% 30.28 in 10.0 mi North 19.6 mph 25.3 mph N/A   Scattered Clouds
10:55 AM 68.0 °F 54.7 °F 62% 30.28 in 10.0 mi NNW 16.1 mph 24.2 mph N/A   Scattered Clouds
11:15 AM 68.2 °F 53.6 °F 60% 30.28 in 10.0 mi NNW 21.9 mph 28.8 mph N/A   Scattered Clouds
11:55 AM 69.3 °F 53.6 °F 57% 30.27 in 10.0 mi North 19.6 mph 27.6 mph N/A   Clear
12:15 PM 70.2 °F 52.0 °F 52% 30.27 in 10.0 mi North 20.7 mph 24.2 mph N/A   Clear
12:35 PM 70.7 °F 51.4 °F 50% 30.26 in 10.0 mi North 17.3 mph 25.3 mph N/A   Clear
12:55 PM 70.9 °F 50.0 °F 48% 30.25 in 10.0 mi North 21.9 mph 31.1 mph N/A   Clear
1:15 PM 71.6 °F 50.9 °F 48% 30.25 in 10.0 mi North 16.1 mph - N/A   Clear
1:35 PM 72.5 °F 50.2 °F 45% 30.24 in 10.0 mi North 15.0 mph 27.6 mph N/A   Clear
1:55 PM 72.7 °F 49.6 °F 44% 30.23 in 10.0 mi North 20.7 mph 27.6 mph N/A   Clear
2:15 PM 73.4 °F 48.9 °F 42% 30.23 in 10.0 mi North 20.7 mph 27.6 mph N/A   Scattered Clouds
2:35 PM 73.9 °F 47.3 °F 39% 30.22 in 10.0 mi North 18.4 mph 24.2 mph N/A   Scattered Clouds
3:15 PM 75.2 °F 45.9 °F 35% 30.20 in 10.0 mi NNW 15.0 mph 27.6 mph N/A   Clear
3:35 PM 75.4 °F 45.7 °F 35% 30.19 in 10.0 mi North 17.3 mph 27.6 mph N/A   Clear
3:55 PM 75.9 °F 44.8 °F 33% 30.18 in 10.0 mi NNW 20.7 mph 24.2 mph N/A   Clear
4:15 PM 76.1 °F 44.8 °F 33% 30.17 in 10.0 mi North 16.1 mph 21.9 mph N/A   Clear
4:35 PM 76.3 °F 44.2 °F 32% 30.17 in 10.0 mi North 12.7 mph 19.6 mph N/A   Clear
4:55 PM 77.4 °F 45.5 °F 32% 30.16 in 10.0 mi North 18.4 mph 23.0 mph N/A   Clear
5:15 PM 77.2 °F 43.0 °F 30% 30.15 in 10.0 mi North 15.0 mph 20.7 mph N/A   Clear
5:35 PM 77.2 °F 42.6 °F 29% 30.15 in 10.0 mi North 13.8 mph - N/A   Clear
5:55 PM 77.0 °F 42.6 °F 29% 30.14 in 10.0 mi North 18.4 mph 24.2 mph N/A   Clear
6:15 PM 77.0 °F 39.6 °F 26% 30.15 in 10.0 mi North 17.3 mph - N/A   Clear
6:35 PM 76.3 °F 42.3 °F 30% 30.14 in 10.0 mi North 17.3 mph 23.0 mph N/A   Clear
6:55 PM 75.6 °F 43.0 °F 31% 30.15 in 10.0 mi North 12.7 mph 18.4 mph N/A   Clear
7:15 PM 74.7 °F 44.1 °F 33% 30.15 in 10.0 mi North 11.5 mph 18.4 mph N/A   Clear
7:35 PM 73.4 °F 44.6 °F 36% 30.16 in 10.0 mi North 8.1 mph - N/A   Clear
7:55 PM 72.0 °F 45.9 °F 39% 30.17 in 10.0 mi North 5.8 mph - N/A   Clear
8:15 PM 69.8 °F 47.3 °F 45% 30.18 in 10.0 mi North 6.9 mph - N/A   Clear
8:35 PM 69.4 °F 45.3 °F 42% 30.19 in 10.0 mi NNE 5.8 mph - N/A   Clear
8:55 PM 68.5 °F 45.3 °F 43% 30.20 in 10.0 mi NNE 4.6 mph - N/A   Clear
9:15 PM 67.5 °F 46.2 °F 46% 30.22 in 10.0 mi NNE 4.6 mph - N/A   Clear
9:35 PM 66.6 °F 46.4 °F 48% 30.23 in 10.0 mi NNE 4.6 mph - N/A   Clear
9:55 PM 66.7 °F 46.4 °F 48% 30.24 in 10.0 mi NE 4.6 mph - N/A   Clear
10:15 PM 66.2 °F 46.6 °F 49% 30.24 in 10.0 mi NE 4.6 mph - N/A   Clear
10:35 PM 65.8 °F 46.6 °F 50% 30.25 in 10.0 mi NE 5.8 mph - N/A   Clear
11:15 PM 64.4 °F 46.8 °F 53% 30.26 in 10.0 mi NE 5.8 mph - N/A   Clear
11:35 PM 63.9 °F 46.4 °F 53% 30.27 in 10.0 mi ENE 5.8 mph - N/A   Clear
11:55 PM 64.4 °F 45.5 °F 50% 30.28 in 10.0 mi NE 4.6 mph - N/A   Clear